ASIASTAR

Last updated on Sun Apr 27 2025 00:02:38 GMT+0000 (Coordinated Universal Time)

1 26107U 00016A 25115.89365483 -.00000328 00000+0 00000+0 0 9995 2 26107 8.1509 62.4858 0004004 341.5834 236.8192 1.00272899 91739
UTC large
Height (km)
Speed (km/s)
/
Latitude / Longitude
Inclination (degrees)
Orbital Period (minutes)
Azimuth
Elevation
Range (km)
Doppler Factor

Next 0 passes for location: London (51.5072 / 0.1276)

Sorry there are no passes over London.